Simultaneous Nadir Overpasses (SNOs) Predictions

Prediction of SNOs between GOES-17 and FY3D Satellite Orbit:

Table of predicted SNOs for the next 14.0 days since TLE Epoch: 8/12/2023
Index Date Time (GOES-17) GOES-17 Lat,Lon FY3D Lat,Lon Distance(km) Time Diff (sec)
1 08/12/2023 21:19:10 -0.00,-104.70 -0.62,-107.56 325.98 80
2 08/13/2023 21:03:26 -0.01,-104.70 0.38,-103.10 182.21 80
3 08/15/2023 09:25:46 0.01,-104.72 0.83,-108.47 427.30 80
4 08/16/2023 09:04:42 0.01,-104.72 -0.17,-104.02 80.84 80
5 08/18/2023 21:08:47 -0.02,-104.70 -0.06,-104.96 30.12 80
6 08/19/2023 20:53:04 -0.01,-104.70 0.95,-100.51 478.38 80
7 08/21/2023 09:15:23 0.02,-104.73 0.25,-105.88 130.49 80
8 08/22/2023 08:54:18 0.01,-104.73 -0.71,-101.41 377.68 80
9 08/23/2023 21:16:48 -0.02,-104.70 -0.48,-106.83 242.11 80
10 08/24/2023 21:01:03 -0.02,-104.70 0.48,-102.36 266.04 80
